TimeEDT,TemperatureF,Dew PointF,Humidity,Sea Level PressureIn,VisibilityMPH,Wind Direction,Wind SpeedMPH,Gust SpeedMPH,PrecipitationIn,Events,Conditions,WindDirDegrees,DateUTC
12:15 AM,42.1,36.0,79,30.49,10.0,ENE,8.1,-,N/A,,Clear,70,2014-04-18 04:15:00
12:35 AM,41.7,36.0,80,30.49,10.0,ENE,6.9,-,N/A,,Clear,70,2014-04-18 04:35:00
12:55 AM,40.5,36.0,84,30.49,10.0,NE,5.8,-,N/A,,Clear,50,2014-04-18 04:55:00
1:15 AM,40.3,36.0,85,30.47,10.0,ENE,9.2,-,N/A,,Clear,60,2014-04-18 05:15:00
1:35 AM,40.1,35.6,84,30.47,10.0,ENE,8.1,-,N/A,,Clear,60,2014-04-18 05:35:00
1:55 AM,39.6,35.6,86,30.46,10.0,ENE,9.2,-,N/A,,Clear,60,2014-04-18 05:55:00
2:15 AM,39.4,35.6,86,30.45,10.0,ENE,5.8,-,N/A,,Clear,60,2014-04-18 06:15:00
2:35 AM,39.2,36.0,88,30.45,10.0,NE,5.8,-,N/A,,Clear,50,2014-04-18 06:35:00
2:55 AM,38.8,35.8,89,30.44,10.0,NE,5.8,-,N/A,,Clear,40,2014-04-18 06:55:00
3:15 AM,38.5,35.6,89,30.44,10.0,NE,4.6,-,N/A,,Clear,40,2014-04-18 07:15:00
3:35 AM,38.3,35.6,90,30.44,10.0,Calm,Calm,-,N/A,,Clear,0,2014-04-18 07:35:00
3:55 AM,37.9,35.6,91,30.44,10.0,North,3.5,-,N/A,,Clear,10,2014-04-18 07:55:00
4:15 AM,37.6,35.4,92,30.44,10.0,North,3.5,-,N/A,,Clear,10,2014-04-18 08:15:00
4:35 AM,37.4,35.2,92,30.43,7.0,NNE,4.6,-,N/A,,Clear,30,2014-04-18 08:35:00
4:55 AM,37.4,35.2,92,30.43,7.0,NNE,4.6,-,N/A,,Clear,30,2014-04-18 08:55:00
5:15 AM,36.9,34.9,93,30.44,7.0,North,3.5,-,N/A,,Clear,360,2014-04-18 09:15:00
5:35 AM,36.5,35.1,95,30.43,7.0,NNE,4.6,-,N/A,,Clear,20,2014-04-18 09:35:00
5:55 AM,36.1,34.7,94,30.43,7.0,North,4.6,-,N/A,,Clear,10,2014-04-18 09:55:00
6:15 AM,36.1,34.9,95,30.43,7.0,North,5.8,-,N/A,,Clear,360,2014-04-18 10:15:00
6:35 AM,36.5,35.1,95,30.44,7.0,North,3.5,-,N/A,,Clear,10,2014-04-18 10:35:00
6:55 AM,36.5,35.2,95,30.44,5.0,NNE,3.5,-,N/A,,Mostly Cloudy,30,2014-04-18 10:55:00
7:15 AM,37.0,35.6,95,30.45,5.0,North,3.5,-,N/A,,Overcast,10,2014-04-18 11:15:00
7:35 AM,37.4,35.6,93,30.45,5.0,North,5.8,-,N/A,,Mostly Cloudy,10,2014-04-18 11:35:00
7:55 AM,38.1,36.0,92,30.46,7.0,North,5.8,-,N/A,,Scattered Clouds,360,2014-04-18 11:55:00
8:15 AM,38.7,36.0,90,30.45,7.0,North,5.8,-,N/A,,Scattered Clouds,10,2014-04-18 12:15:00
8:35 AM,40.1,36.1,86,30.44,10.0,NNE,11.5,-,N/A,,Mostly Cloudy,30,2014-04-18 12:35:00
8:55 AM,41.0,36.1,83,30.45,10.0,NE,9.2,-,N/A,,Mostly Cloudy,40,2014-04-18 12:55:00
9:15 AM,42.3,35.4,77,30.45,10.0,NE,6.9,-,N/A,,Scattered Clouds,40,2014-04-18 13:15:00
9:35 AM,43.7,34.7,71,30.45,10.0,NNE,9.2,16.1,N/A,,Clear,30,2014-04-18 13:35:00
9:55 AM,44.8,34.7,68,30.45,10.0,NNE,8.1,-,N/A,,Clear,20,2014-04-18 13:55:00
10:15 AM,46.4,35.2,65,30.44,10.0,NNE,6.9,-,N/A,,Clear,30,2014-04-18 14:15:00
10:35 AM,46.4,34.7,64,30.44,10.0,NNE,9.2,-,N/A,,Clear,20,2014-04-18 14:35:00
10:55 AM,47.7,35.6,63,30.44,10.0,NNE,4.6,-,N/A,,Clear,30,2014-04-18 14:55:00
11:15 AM,48.4,34.9,60,30.45,10.0,NE,3.5,-,N/A,,Clear,40,2014-04-18 15:15:00
11:35 AM,49.3,35.1,58,30.44,10.0,NE,5.8,-,N/A,,Clear,50,2014-04-18 15:35:00
12:15 PM,50.2,35.4,57,30.44,10.0,North,5.8,-,N/A,,Clear,360,2014-04-18 16:15:00
12:35 PM,50.9,35.2,55,30.42,10.0,North,5.8,-,N/A,,Clear,10,2014-04-18 16:35:00
12:55 PM,52.0,35.2,53,30.41,10.0,NE,6.9,-,N/A,,Clear,40,2014-04-18 16:55:00
1:15 PM,52.9,35.8,52,30.40,10.0,North,4.6,-,N/A,,Clear,10,2014-04-18 17:15:00
1:35 PM,54.3,35.6,49,30.39,10.0,ENE,4.6,-,N/A,,Clear,70,2014-04-18 17:35:00
1:55 PM,54.5,35.2,48,30.39,10.0,Calm,Calm,-,N/A,,Clear,0,2014-04-18 17:55:00
2:15 PM,55.6,35.2,46,30.37,10.0,NNE,8.1,-,N/A,,Clear,20,2014-04-18 18:15:00
2:35 PM,56.1,34.7,45,30.36,10.0,NNE,3.5,-,N/A,,Clear,30,2014-04-18 18:35:00
2:55 PM,58.1,36.5,44,30.34,10.0,NE,3.5,-,N/A,,Clear,40,2014-04-18 18:55:00
3:15 PM,57.2,35.6,44,30.33,10.0,North,3.5,-,N/A,,Clear,350,2014-04-18 19:15:00
3:35 PM,58.3,36.5,44,30.32,10.0,North,4.6,-,N/A,,Clear,350,2014-04-18 19:35:00
3:55 PM,58.1,36.3,44,30.30,10.0,ENE,9.2,-,N/A,,Clear,70,2014-04-18 19:55:00
4:15 PM,58.3,37.2,45,30.29,10.0,NE,5.8,-,N/A,,Clear,50,2014-04-18 20:15:00
4:35 PM,57.4,36.3,45,30.28,10.0,NE,6.9,-,N/A,,Clear,40,2014-04-18 20:35:00
4:55 PM,57.2,36.0,45,30.28,10.0,ENE,6.9,-,N/A,,Clear,60,2014-04-18 20:55:00
5:15 PM,57.2,37.4,48,30.28,10.0,ENE,5.8,-,N/A,,Clear,70,2014-04-18 21:15:00
5:35 PM,56.3,36.1,47,30.28,10.0,ENE,5.8,-,N/A,,Clear,60,2014-04-18 21:35:00
5:55 PM,55.8,37.0,49,30.28,10.0,NE,4.6,-,N/A,,Clear,50,2014-04-18 21:55:00
6:15 PM,55.4,37.2,50,30.28,10.0,Calm,Calm,-,N/A,,Clear,0,2014-04-18 22:15:00
6:35 PM,54.7,37.9,53,30.29,10.0,NE,3.5,-,N/A,,Clear,40,2014-04-18 22:35:00
6:55 PM,54.5,38.1,54,30.28,10.0,NNE,3.5,-,N/A,,Scattered Clouds,30,2014-04-18 22:55:00
7:15 PM,54.1,38.3,55,30.27,10.0,Calm,Calm,-,N/A,,Scattered Clouds,0,2014-04-18 23:15:00
7:35 PM,53.6,39.0,58,30.27,10.0,Calm,Calm,-,N/A,,Mostly Cloudy,0,2014-04-18 23:35:00
7:55 PM,52.9,39.4,60,30.27,10.0,Calm,Calm,-,N/A,,Mostly Cloudy,0,2014-04-18 23:55:00
8:15 PM,52.7,40.6,64,30.27,10.0,North,4.6,-,N/A,,Mostly Cloudy,10,2014-04-19 00:15:00
8:35 PM,52.7,40.3,63,30.29,10.0,Calm,Calm,-,N/A,,Overcast,0,2014-04-19 00:35:00
8:55 PM,52.0,40.8,66,30.29,10.0,North,3.5,-,N/A,,Overcast,10,2014-04-19 00:55:00
9:15 PM,52.0,39.6,63,30.28,10.0,NE,3.5,-,N/A,,Overcast,50,2014-04-19 01:15:00
9:35 PM,51.6,40.5,66,30.28,10.0,Calm,Calm,-,N/A,,Overcast,0,2014-04-19 01:35:00
9:55 PM,51.1,40.5,67,30.29,10.0,East,3.5,-,N/A,Rain,Rain,100,2014-04-19 01:55:00
10:15 PM,50.7,41.5,71,30.28,10.0,Calm,Calm,-,N/A,Rain,Light Rain,0,2014-04-19 02:15:00
10:35 PM,49.1,42.3,77,30.27,10.0,North,4.6,-,N/A,Rain,Light Rain,360,2014-04-19 02:35:00
10:55 PM,48.7,43.7,83,30.28,10.0,East,3.5,-,N/A,Rain,Light Rain,90,2014-04-19 02:55:00
11:15 PM,48.2,43.9,85,30.28,7.0,ENE,3.5,-,0.01,Rain,Light Rain,60,2014-04-19 03:15:00
11:35 PM,47.5,44.1,88,30.28,7.0,Calm,Calm,-,0.02,Rain,Light Rain,0,2014-04-19 03:35:00
11:55 PM,47.1,44.6,91,30.27,5.0,Calm,Calm,-,0.05,Rain,Rain,0,2014-04-19 03:55:00